[[{"header":{"parameterUnit":"m.s-1","parameterCategory":1,"la1":30.2991,"la2":30.254,"lo1":-89.0895,"lo2":-89.0444,"dy":0.0017,"dx":0.0017,"nx":28,"ny":28,"refTime":"2025-06-22T03:00:00:Z","depth":0,"parameterNumber":2,"parameterNumberName":"U-component_of_WINDS"},"data":[0,0,0,0,0,0,0,0,0,0,0,0,0,0,0,0,0,0,0,0,0,0,0,0,0,0,0,0,0,0,0,0,0,0,0,0,0,0,0,0,0,0,0,0,0,0,0,0,0,0,0,0,0,0,0,0,0,0,-1.6086,-1.6086,0,-1.6084,-1.6084,-1.6084,-1.6039,-1.6038,-1.6037,-1.6036,-1.6035,-1.6036,-1.6037,0,0,0,0,0,0,0,0,0,0,0,0,0,-1.6052,-1.6053,-1.6086,-1.6086,-1.6086,-1.6084,-1.6084,-1.6084,-1.604,-1.6038,-1.6037,-1.6035,-1.6035,-1.6036,-1.6037,0,0,0,0,0,0,0,0,0,0,0,0,0,-1.606,-1.6053,-1.6086,-1.6063,-1.6061,-1.6084,-1.6084,-1.6084,-1.604,-1.6038,-1.6036,-1.6035,-1.6035,-1.6036,-1.6038,-1.6082,0,0,-1.6043,-1.6043,0,0,0,0,0,0,0,0,-1.606,-1.6062,-1.6067,-1.6065,-1.6063,-1.606,-1.6072,-1.6084,-1.604,-1.6048,-1.6036,-1.6034,-1.6045,-1.6046,-1.6049,-1.6082,-1.6082,-1.6043,-1.6044,-1.6044,-1.6045,0,0,0,0,0,0,0,-1.6059,-1.6061,-1.6085,-1.6067,-1.6064,-1.6054,-1.6053,-1.6074,-1.6056,-1.6047,-1.6044,-1.6044,-1.6044,-1.6048,-1.6049,-1.6082,-1.6043,-1.6044,-1.6045,-1.6046,-1.6152,-1.6154,0,0,0,0,0,0,-1.6062,-1.6061,-1.6085,-1.6085,-1.6057,-1.6056,-1.6055,-1.6063,-1.6056,-1.6053,-1.6046,-1.6042,-1.6046,-1.6047,-1.6049,-1.61,-1.6044,-1.6046,-1.6047,-1.615,-1.6152,-1.6154,0,0,0,0,0,0,-1.6061,-1.6064,-1.6085,-1.6072,-1.6074,-1.6058,-1.6067,-1.6064,-1.6068,-1.6055,-1.6052,-1.6053,-1.6045,-1.6046,-1.6074,-1.61,-1.6047,-1.6048,-1.6148,-1.6151,-1.6153,-1.6204,0,0,0,0,0,0,-1.606,-1.6064,-1.6081,-1.6073,-1.6075,-1.6111,-1.6069,-1.6065,-1.607,-1.6066,-1.6061,-1.6059,-1.6043,-1.6072,-1.6076,-1.6101,-1.6049,-1.6145,-1.6149,-1.6152,-1.62,-1.6208,-1.6215,0,0,0,0,0,-1.6059,-1.6095,-1.6082,-1.6085,-1.6095,-1.6112,-1.6113,-1.6095,-1.6073,-1.6089,-1.6081,-1.6059,-1.6096,-1.6075,-1.6079,-1.6105,-1.6144,-1.6148,-1.6152,-1.6197,-1.6207,-1.6215,0,0,0,0,0,0,-1.6107,-1.6094,-1.6079,-1.6113,-1.6114,-1.6105,-1.6125,-1.6106,-1.6114,-1.6109,-1.6086,-1.6085,-1.6117,-1.6114,-1.609,-1.6148,-1.6116,-1.6121,-1.6149,-1.6158,-1.6166,-1.6165,-1.6051,0,0,0,0,0,-1.6121,-1.6136,-1.6124,-1.6156,-1.6157,-1.6141,-1.6148,-1.6133,-1.6133,-1.6134,-1.6128,-1.6129,-1.6141,-1.6149,-1.616,-1.62,-1.6198,-1.6219,-1.6227,-1.6233,-1.6238,-1.6259,-1.6268,-1.6168,-1.6168,-1.6168,0,0,-1.6151,-1.6146,-1.6157,-1.6165,-1.6164,-1.618,-1.6141,-1.616,-1.6171,-1.6137,-1.6162,-1.6158,-1.6158,-1.6192,-1.6207,-1.619,-1.6265,-1.6239,-1.6244,-1.6245,-1.6264,-1.6273,-1.6282,-1.6171,-1.617,-1.617,0,0,-1.6214,-1.6212,-1.6238,-1.6237,-1.6236,-1.6226,-1.6232,-1.6225,-1.6221,-1.6246,-1.6221,-1.6234,-1.6256,-1.6257,-1.626,-1.6324,-1.6304,-1.6328,-1.6368,-1.6388,-1.6396,-1.6403,-1.6426,-1.6434,-1.6333,-1.6333,-1.6333,0,-1.6252,-1.6274,-1.6253,-1.6273,-1.6278,-1.6247,-1.6273,-1.6274,-1.6277,-1.6281,-1.6263,-1.6289,-1.6287,-1.6321,-1.6336,-1.634,-1.6347,-1.6328,-1.6397,-1.6403,-1.6409,-1.6431,-1.6439,-1.6336,-1.6336,-1.6335,-1.6335,0,-1.632,-1.6336,-1.6358,-1.636,-1.6367,-1.6391,-1.6374,-1.6384,-1.6369,-1.6361,-1.6387,-1.6383,-1.6393,-1.64,-1.6386,-1.6432,-1.6422,-1.6401,-1.6368,-1.6422,-1.6442,-1.645,-1.634,-1.6339,-1.6338,-1.6338,0,0,-1.6412,-1.6404,-1.6412,-1.6413,-1.6409,-1.6422,-1.6444,-1.6452,-1.6461,-1.6464,-1.6482,-1.6501,-1.6482,-1.6486,-1.6472,-1.649,-1.6541,-1.6466,-1.6466,-1.648,-1.6591,-1.6606,-1.6616,-1.6527,-1.6529,-1.653,-1.6591,0,-1.6473,-1.6509,-1.6492,-1.653,-1.6545,-1.6516,-1.6535,-1.6536,-1.6529,-1.654,-1.6533,-1.6546,-1.6519,-1.6522,-1.6538,-1.6531,-1.6562,-1.6526,-1.6544,-1.6545,-1.6544,-1.6626,-1.6643,-1.6701,-1.6598,-1.66,-1.6601,0,-1.6548,-1.6554,-1.6594,-1.6588,-1.6593,-1.6611,-1.6617,-1.6629,-1.6629,-1.6623,-1.6627,-1.6609,-1.6631,-1.6599,-1.6629,-1.6605,-1.6611,-1.6609,-1.661,-1.6611,-1.6576,-1.6629,-1.6718,-1.6727,-1.6612,-1.6612,-1.6611,0,-1.6611,-1.6629,-1.6655,-1.6657,-1.6651,-1.6664,-1.6662,-1.666,-1.6666,-1.6673,-1.6676,-1.6685,-1.669,-1.6698,-1.6683,-1.6661,-1.6714,-1.6681,-1.671,-1.671,-1.6722,-1.6721,-1.6813,-1.6727,-1.6727,-1.6727,-1.6726,0,-1.668,-1.6705,-1.6683,-1.6699,-1.6727,-1.6707,-1.6736,-1.6731,-1.673,-1.6745,-1.6721,-1.6735,-1.6715,-1.6728,-1.6716,-1.6743,-1.6745,-1.6741,-1.6737,-1.6742,-1.6743,-1.6746,-1.6741,-1.6729,-1.6728,-1.6728,-1.6727,0,-1.6754,-1.674,-1.6767,-1.6759,-1.6758,-1.6779,-1.6772,-1.6787,-1.6778,-1.6798,-1.6801,-1.6788,-1.6802,-1.6787,-1.6801,-1.6793,-1.6828,-1.6819,-1.6828,-1.6825,-1.6855,-1.6852,-1.6951,-1.6963,-1.687,-1.6871,-1.6871,0,-1.6799,-1.6818,-1.6812,-1.682,-1.682,-1.6833,-1.684,-1.6821,-1.6828,-1.683,-1.6845,-1.6857,-1.6865,-1.6889,-1.6881,-1.6891,-1.6882,-1.6916,-1.6883,-1.6888,-1.6882,-1.6881,-1.6883,-1.6922,-1.6923,-1.6924,-1.6925,0,-1.688,-1.6872,-1.6882,-1.689,-1.6898,-1.6903,-1.6906,-1.6915,-1.6895,-1.6905,-1.6919,-1.6925,-1.6939,-1.6951,-1.6959,-1.6957,-1.6938,-1.6936,-1.6943,-1.6948,-1.6952,-1.695,-1.6846,-1.6933,-1.6932,-1.6932,-1.6931,-1.6931,-1.6941,-1.6957,-1.6955,-1.6966,-1.6967,-1.6971,-1.6984,-1.6977,-1.6988,-1.6997,-1.6986,-1.7003,-1.7003,-1.7011,-1.7012,-1.7025,-1.7011,-1.7021,-1.7023,-1.7026,-1.703,-1.6951,-1.7026,-1.7026,-1.7026,-1.7026,-1.7026,0,-1.7021,-1.7018,-1.7029,-1.7034,-1.7044,-1.7025,-1.7028,-1.7037,-1.7052,-1.7053,-1.7062,-1.7078,-1.709,-1.7082,-1.7093,-1.7105,-1.7096,-1.7108,-1.7107,-1.7107,-1.7043,-1.7035,-1.7115,-1.7115,-1.7115,-1.7115,-1.7115,-1.7115,-1.7063,-1.7088,-1.708,-1.7106,-1.7103,-1.7119,-1.7122,-1.7126,-1.7127,-1.7145,-1.7155,-1.715,-1.7148,-1.7158,-1.7168,-1.7166,-1.717,-1.7185,-1.718,-1.712,-1.7111,-1.7103,-1.7096,-1.7187,-1.7187,-1.7243,-1.7243,-1.7244]},{"header":{"parameterUnit":"m.s-1","parameterCategory":1,"la1":30.2991,"la2":30.254,"lo1":-89.0895,"lo2":-89.0444,"dy":0.0017,"dx":0.0017,"nx":28,"ny":28,"refTime":"2025-06-22T03:00:00:Z","depth":0,"parameterNumber":3,"parameterNumberName":"V-component_of_WINDS"},"data":[0,0,0,0,0,0,0,0,0,0,0,0,0,0,0,0,0,0,0,0,0,0,0,0,0,0,0,0,0,0,0,0,0,0,0,0,0,0,0,0,0,0,0,0,0,0,0,0,0,0,0,0,0,0,0,0,0,0,2.3205,2.3205,0,2.323,2.323,2.323,2.3216,2.3215,2.3214,2.3214,2.3237,2.3238,2.3239,0,0,0,0,0,0,0,0,0,0,0,0,0,2.3143,2.3144,2.3205,2.3205,2.3205,2.3229,2.323,2.323,2.3216,2.3215,2.3214,2.3213,2.3236,2.3238,2.3239,0,0,0,0,0,0,0,0,0,0,0,0,0,2.3169,2.3145,2.3205,2.3201,2.3201,2.3229,2.323,2.323,2.3216,2.3215,2.3214,2.3213,2.3236,2.3238,2.324,2.3272,0,0,2.3245,2.3246,0,0,0,0,0,0,0,0,2.3167,2.3171,2.3201,2.3202,2.3202,2.3219,2.3216,2.3244,2.3216,2.321,2.3214,2.3212,2.3231,2.3234,2.3241,2.3273,2.3274,2.3246,2.3247,2.3248,2.3248,0,0,0,0,0,0,0,2.3166,2.317,2.3214,2.3202,2.3202,2.3198,2.32,2.3222,2.3226,2.3211,2.321,2.3213,2.3231,2.3239,2.3241,2.3275,2.3246,2.3247,2.3248,2.3249,2.3334,2.3335,0,0,0,0,0,0,2.3164,2.3169,2.3214,2.3215,2.3182,2.32,2.3202,2.3214,2.3226,2.3227,2.3214,2.3212,2.3236,2.3239,2.3242,2.328,2.3248,2.3249,2.325,2.3333,2.3334,2.3336,0,0,0,0,0,0,2.3163,2.3169,2.3213,2.3192,2.3197,2.3202,2.3215,2.3215,2.3223,2.3229,2.3229,2.3221,2.3235,2.3239,2.3265,2.328,2.325,2.3252,2.3332,2.3333,2.3335,2.3357,0,0,0,0,0,0,2.3161,2.3168,2.3181,2.3192,2.3198,2.3236,2.3216,2.3216,2.3226,2.3224,2.3235,2.3236,2.3235,2.3262,2.3266,2.3283,2.3253,2.333,2.3332,2.3334,2.3355,2.3359,2.3363,0,0,0,0,0,2.3159,2.3186,2.3182,2.3187,2.3215,2.3237,2.324,2.3239,2.3227,2.324,2.3244,2.3236,2.3278,2.3265,2.327,2.3287,2.3329,2.3332,2.3334,2.3353,2.3358,2.3363,0,0,0,0,0,0,2.3176,2.3187,2.3183,2.3214,2.3225,2.3235,2.325,2.3245,2.3258,2.3256,2.3253,2.3256,2.3282,2.3287,2.3272,2.3318,2.3302,2.3305,2.3314,2.3319,2.3323,2.3321,2.3255,0,0,0,0,0,2.3184,2.3202,2.321,2.3237,2.3242,2.3246,2.3255,2.3253,2.3264,2.3268,2.3274,2.3284,2.3299,2.331,2.3324,2.3355,2.3357,2.3369,2.3373,2.3377,2.338,2.3396,2.3401,2.3344,2.3344,2.3344,0,0,2.3199,2.3207,2.3219,2.324,2.3248,2.3266,2.3249,2.3269,2.3282,2.3271,2.3295,2.33,2.3311,2.3339,2.3352,2.3344,2.3396,2.338,2.3382,2.3384,2.3399,2.3404,2.3409,2.3346,2.3345,2.3345,0,0,2.3236,2.3245,2.3268,2.3276,2.3288,2.329,2.3296,2.3306,2.3309,2.3334,2.3326,2.3341,2.3368,2.3376,2.3383,2.3423,2.3415,2.3428,2.3449,2.3464,2.3469,2.3473,2.3486,2.3491,2.3431,2.3431,2.3431,0,2.3253,2.3281,2.328,2.33,2.3309,2.3301,2.3324,2.3331,2.3348,2.3354,2.3345,2.3379,2.3385,2.3415,2.3425,2.3431,2.3437,2.3426,2.3468,2.3472,2.3476,2.3489,2.3494,2.3432,2.3432,2.3432,2.3432,0,2.3301,2.332,2.3337,2.3353,2.3365,2.3386,2.3388,2.3399,2.3396,2.3399,2.3423,2.3431,2.3447,2.3454,2.3451,2.3483,2.3478,2.3469,2.3452,2.3483,2.3495,2.35,2.3434,2.3434,2.3433,2.3433,0,0,2.3349,2.3365,2.3371,2.3378,2.3391,2.3406,2.3426,2.3442,2.3452,2.3463,2.348,2.3503,2.3494,2.3503,2.3501,2.3515,2.3545,2.3504,2.3504,2.3511,2.358,2.3586,2.3592,2.354,2.3541,2.3542,2.3579,0,2.3387,2.3423,2.3423,2.3457,2.3473,2.3466,2.3483,2.3493,2.3496,2.351,2.3513,2.3529,2.3517,2.3522,2.3535,2.3538,2.3559,2.3536,2.3555,2.3556,2.3552,2.3598,2.3605,2.3639,2.3583,2.3584,2.3585,0,2.3435,2.3449,2.3484,2.3494,2.3501,2.3518,2.3532,2.3546,2.3556,2.3557,2.3567,2.3563,2.3582,2.3566,2.3593,2.3577,2.3585,2.3588,2.3589,2.359,2.3572,2.36,2.365,2.3655,2.3592,2.3592,2.3591,0,2.3466,2.3493,2.3518,2.3524,2.3537,2.3548,2.3554,2.3563,2.3572,2.3585,2.3591,2.3605,2.3613,2.3624,2.3623,2.3611,2.365,2.3634,2.3651,2.3651,2.3659,2.3659,2.3711,2.3665,2.3665,2.3665,2.3665,0,2.3507,2.3529,2.3532,2.3547,2.3571,2.357,2.3593,2.3597,2.3606,2.3621,2.3615,2.3629,2.3628,2.3642,2.3641,2.3663,2.3667,2.3668,2.3667,2.3668,2.3668,2.3673,2.367,2.3666,2.3666,2.3666,2.3666,0,2.3546,2.3548,2.3574,2.3584,2.3587,2.3604,2.3612,2.3626,2.3628,2.3648,2.3652,2.3655,2.3672,2.3672,2.3691,2.3691,2.3717,2.3714,2.3714,2.3713,2.373,2.3728,2.3787,2.3794,2.3744,2.3745,2.3745,0,2.3572,2.3588,2.36,2.361,2.3616,2.3633,2.3642,2.3642,2.3652,2.3665,2.3677,2.3693,2.3705,2.3731,2.3735,2.3749,2.3746,2.3765,2.3748,2.3748,2.3745,2.3744,2.3746,2.3769,2.3769,2.377,2.377,0,2.3617,2.3618,2.3632,2.3647,2.3659,2.3671,2.3682,2.369,2.3691,2.3702,2.3719,2.3729,2.3748,2.3763,2.3777,2.3782,2.3776,2.3776,2.378,2.3781,2.378,2.378,2.3723,2.3774,2.3774,2.3773,2.3773,2.3773,2.365,2.3664,2.3674,2.3691,2.3699,2.3709,2.3722,2.3727,2.3741,2.3757,2.3755,2.3774,2.3783,2.38,2.3806,2.382,2.3813,2.382,2.3822,2.3823,2.3825,2.3778,2.3823,2.3823,2.3823,2.3822,2.3822,0,2.3695,2.3701,2.3716,2.3731,2.3744,2.3738,2.3749,2.376,2.3777,2.3786,2.3799,2.3817,2.3832,2.3837,2.3851,2.3862,2.3859,2.3865,2.3864,2.3865,2.3831,2.3825,2.3867,2.3867,2.3867,2.3867,2.3867,2.3867,2.3719,2.3743,2.3744,2.3772,2.3777,2.3796,2.3803,2.3812,2.3819,2.3841,2.3853,2.3857,2.3864,2.3879,2.3892,2.3893,2.3898,2.3905,2.3905,2.3872,2.3868,2.3863,2.3858,2.3906,2.3906,2.3938,2.3939,2.3939]}]]